Preview of NWS' New Version of Forecast
This preview is not operational and should not be used for support decisions.

Regional Weather Roundup (RWR)

Issued by Gray - Portland, ME (GYX)

                            
000
ASUS41 KGYX 241005
RWRGYX
WEATHER ROUNDUP FOR MAINE AND NEW HAMPSHIRE
NATIONAL WEATHER SERVICE GRAY ME
600 AM EDT WED APR 24 2019

MEZ002-005-006-010-012-015-018-020-021-024-026-027-029-241100-
MAINE
  
CITY           SKY/WX    TMP DP  RH WIND       PRES   REMARKS
PORTLAND       DRIZZLE   42  40  92 E7        29.72F FOG              
SANFORD        LGT RAIN  41  41 100 E3        29.71F FOG              
BAR HARBOR     LGT RAIN  37  37 100 E3        29.76F FOG              
WISCASSET      CLOUDY    41  39  93 VRB3      29.76F FOG              
ROCKLAND       LGT RAIN  39  39 100 NE3       29.76S FOG              
FRYEBURG       CLOUDY    41  40  96 CALM      29.71S FOG              
LEWISTONAUBURN LGT RAIN  40  39  97 E3        29.72F FOG              
AUGUSTA        CLOUDY    38  38 100 SE5       29.74F                  
WATERVILLE     CLOUDY    37  37 100 CALM      29.72S                  
BANGOR         LGT RAIN  37  36  96 E5        29.75F FOG              
GREENVILLE       N/A     32  31  96 SE8       29.66F                  
MILLINOCKET    LGT RAIN  35  33  92 NE7       29.75F FOG              
HOULTON        CLOUDY    33  32  96 N7        29.74F FOG              
PRESQUE ISLE   CLOUDY    33  30  88 NE6       29.77S                  
FRENCHVILLE    CLOUDY    34  29  82 NE10      29.75F                  
CARIBOU        CLOUDY    34  30  85 NE6       29.75S                  
$$

NHZ002-005-008-009-011-012-014-241100-
NEW HAMPSHIRE
  
CITY           SKY/WX    TMP DP  RH WIND       PRES   REMARKS
PORTSMOUTH     FOG       43  43  99 E7        29.68F VSB 1/2          
ROCHESTER      CLOUDY    42  42 100 E5        29.69F FOG              
NASHUA         FOG       45  45 100 N5        29.69F VSB 1            
MANCHESTER     FOG       45  44  97 VRB3      29.67S VSB 3/4          
CONCORD        CLOUDY    42  42 100 CALM      29.70S FOG              
LACONIA        CLOUDY    41  41 100 E5        29.70S FOG              
PLYMOUTH       CLOUDY    42  41  96 E3        29.69F FOG              
BERLIN         CLOUDY    42  41  96 CALM      29.64S                  
WHITEFIELD     CLOUDY    46  43  89 NE3       29.61F                  
JAFFREY        CLOUDY    47  45  93 CALM      29.67S FOG              
KEENE          CLOUDY    52  51  97 S5        29.66S                  
LEBANON        CLOUDY    47  42  83 NE10      29.63S                  
MT WASHINGTON  FOG       34  34 100 W47         N/A  VSB 0   WCI  17  
$$

VTZ005-007-008-241100-
VERMONT
  
CITY           SKY/WX    TMP DP  RH WIND       PRES   REMARKS
ST JOHNSBURY     N/A     47  45  93 MISG      29.60S                  
MONTPELIER     FAIR      49  40  71 SW13G22   29.65R                  
BURLINGTON     MOCLDY    51  40  65 S7        29.61S                  
$$

MAZ007-012-024-CTZ003-RIZ002-NYZ038-NYZ072-241100-
SOUTHERN NEW ENGLAND AND NY
  
CITY           SKY/WX    TMP DP  RH WIND       PRES   REMARKS
BOSTON         CLOUDY    52  48  86 SW3       29.68F                  
WORCESTER      CLOUDY    48  48 100 VRB3      29.66S FOG              
NANTUCKET      LGT RAIN  48  48 100 SE14      29.74F                  
PROVIDENCE     MOCLDY    50  49  96 S6        29.67F                  
HARTFORD       FAIR      52  50  93 W3        29.66R FOG              
ALBANY         MOCLDY    51  41  68 NW13G22   29.74R                  
NEW YORK CITY  FAIR      66  51  58 W14G23    29.67R                  
$$

ANZ081-ANZ082-ANZ150-NHZ014-MEZ023>029-241100-
COASTAL MARINE OBSERVATIONS
  
STATION/POSITION TIME  TEMP    WIND        PRES    WAVE
                       AIR SEA DIR/SP/G            HT/PER
                 (UTC) (F)     (DEG/KT/KT) (MB)    (FT/S)
ISLE OF SHOALS   0900   42     130/ 10/ 11 1005.7F
JEFFREYS LEDGE   0908      42                N/A     4/ 9
CASHES LEDGE BUO 0950   41 42              1007.5R   4/ 8
$$

.............KEY..............
   WCI - WIND CHILL
   TC  - TEMPERATURE IN CELSIUS
   VSB - VISIBILITY IN MILES
   HX  - HEAT INDEX
   FAIR- INDICATES FEW OR NO CLOUDS BELOW 12,000 FT, WITH NO 
         SIGNIFICANT WEATHER AND/OR OBSTRUCTIONS TO VISIBILITY.